Tracking 29594 objects as of 20-Sep-2024
HD Live streaming from Space Station
objects crossing your sky now

COSMOS 2491 DEB

Track COSMOS 2491 DEB now!
10-day predictions


NORAD ID: 57561
Int'l Code: 2013-076AY
Perigee: 1,303.9 km
Apogee: 1,472.7 km
Inclination: 82.7 °
Period: 113.4 minutes
Semi major axis: 7759 km
RCS: Unknown
Launch date: December 25, 2013
Source: Commonwealth of Independent States (former USSR) (CIS)
Launch site: PLESETSK MISSILE AND SPACE COMPLEX (PKMTR)

Note: This is SATELLITE DEBRIS
Your satellite tracking list
Your tracking list is empty




NASA's NSSDC Master Catalog

Two Line Element Set (TLE):
1 57561U 13076AY  24262.44530973  .00003257  00000-0  15943-1 0  9992
2 57561  82.7498 162.3796 0108771 259.3786  99.5045 12.70189382 63385
Source of the keplerian elements: AFSPC